Voltar ao catálogo

STARLINK-6254

AtivoComunicaçõesVLEO
NORAD 57090·PAYLOAD·🇺🇸 United States

Lançado Jun 22, 2023 de Vandenberg Space Force Base

Loading…

Próximas Passagens (próximas 24 horas)

TLE

AtualizadoSource: CelesTrak SupGP

Época: Sep 14, 2026, 22:14 UTC

1 57090C 23088AU  26257.92687500  .00014109  00000+0  51129-3 0  2573
2 57090  43.0019 107.1164 0001621 267.7532 147.0539 15.27554083    12

Acompanhe STARLINK-6254 em tempo real com AllMySat

Download on the App Store